Location: G�ndlingen
(48.0142°N, 7.6396°E)
Time: 02:24:29
(UTC+00:00)

Cosmos 2327 Rocket - Pass Details

Date: 05 July 2020
Orbit: 943 x 1009 km, 83.0° (Epoch: 04 August)

Event Time Altitude Azimuth Distance (km) Brightness Sun altitude
Exits shadow 21:52:12 22° 172° (S) 1,985 5.5 -15.7°
Maximum altitude 21:56:20 68° 95° (E) 1,031 4.5 -16.0°
Drops below altitude 10° 22:02:26 10° 13° (NNE) 2,689 7.6 -16.4°
Sets 22:04:55 0° 11° (NNE) 3,633 8.5 -16.5°
